OKEAN-0
1 25860U 99039A 12116.92911528 .00000641 00000-0 10464-3 0 06300
2 25860 097.9309 080.6586 0001913 060.0405 300.0995 14.74162387686876
NOAA-16
1 26536U 00055A 12117.19438042 -.00000040 00000-0 33662-5 0 7241
2 26536 099.0985 158.5011 0009945 227.0550 132.9813 14.12727334597690
NOAA-17
1 27453U 02032A 12116.97219053 .00000308 00000-0 15058-3 0 06838
2 27453 098.3394 146.6360 0010865 313.2542 046.7739 14.24421480511323
NOAA-18
1 28654U 05018A 12116.89926110 .00000013 00000-0 32370-4 0 01586
2 28654 099.0422 074.5655 0013737 305.1944 054.7937 14.11637454357187
NOAA-19
1 33591U 09005A 12116.96633159 .00000508 00000-0 30526-3 0 03501
2 33591 098.8617 057.4109 0014030 165.3277 194.8327 14.11326807165646
HUBBLE
1 20580U 90037B 12117.24583394 .00002166 00000-0 14719-3 0 9905
2 20580 028.4682 123.4295 0003528 220.8182 139.2245 15.02409294 6912
ISS
1 25544U 98067A 12118.04916667 .00018899 00000-0 25854-3 0 4472
2 25544 051.6424 018.1816 0009380 287.1428 267.1485 15.57412237770049
CO-58
1 28895U 05043F 12117.29292389 .00001076 00000-0 23022-3 0 1594
2 28895 097.9199 345.8281 0016644 317.2872 042.7014 14.60578417346082
FALCON
1 30776U 07006E 12117.65931104 .00006792 00000-0 44442-3 0 3334
2 30776 035.4310 231.4836 0001794 309.0985 050.9570 15.07189370282473
MAST
1 31126U 07012K 12116.92689336 .00000708 00000-0 16866-3 0 04495
2 31126 097.8760 131.0831 0092694 273.8073 085.2544 14.54115719266672
CAPE1
1 31130U 07012P 12116.57442125 .00000759 00000-0 18323-3 0 04557
2 31130 097.8817 127.1658 0100453 287.7305 071.2949 14.52879645266136
COMPASS
1 32787U 08021E 12117.61946835 .00003942 00000-0 48122-3 0 2869
2 32787 097.8045 180.0911 0014436 226.1556 133.8482 14.83803680216163
AAUSAT2
1 32788U 08021F 12116.85838937 .00003278 00000-0 39848-3 0 02786
2 32788 097.8078 179.6992 0013745 228.8371 131.1688 14.84097893216070
DO-64
1 32789U 08021G 12116.88865242 .00006364 00000-0 74269-3 0 02953
2 32789 097.8159 181.5587 0013981 225.0692 134.9406 14.85445676216111
CO-66
1 32791U 08021J 12117.65684096 .00002595 00000-0 32319-3 0 2770
2 32791 097.8035 179.9082 0014717 227.2499 132.7493 14.83252997216106
RS-30
1 32953U 08025A 12117.53601736 .00000010 00000-0 00000 0 0 7291
2 32953 082.5028 327.2670 0019715 061.8010 298.5077 12.43022702178147
TACSAT-3
1 35001U 09028A 12116.92202569 .01342310 12008-2 12298-2 0 09793
2 35001 040.4419 024.3411 0018237 245.3326 114.5583 16.11353863166214
PHARMSAT
1 35002U 09028B 12117.22009461 .00120478 00000-0 79027-3 0 8770
2 35002 040.4637 037.6724 0005075 220.7717 139.2731 15.74538273166103
METEOR-M
1 35865U 09049A 12117.63833067 -.00000011 00000-0 14805-4 0 3570
2 35865 098.6589 172.9175 0002093 181.6841 178.4334 14.21860099135277
RS-38
1 35869U 09049E 12117.59665150 .00000367 00000-0 18568-3 0 3667
2 35869 098.6526 172.8826 0004294 192.1735 167.9370 14.22067107135282
JUGNU
1 37839U 11058B 12117.30200945 .00000619 00000-0 19019-3 0 1362
2 37839 019.9613 312.5705 0018999 009.5326 350.5217 14.12045694 27902
SRMSAT
1 37841U 11058D 12117.63975836 .00000264 00000-0 00000 0 0 1372
2 37841 019.9727 314.3630 0011487 341.5112 018.4746 14.10133419 27903
RAX-2
1 37853U 11061D 12117.59780385 .00007025 00000-0 56273-3 0 1602
2 37853 101.7164 134.3111 0249103 137.9982 224.0608 14.79469062 26761
AUBIESAT
1 37854U 11061E 12116.95672912 .00007538 00000-0 59265-3 0 01713
2 37854 101.7176 133.5682 0250795 139.2285 222.8000 14.79812386026661
HRBE
1 37855U 11061F 12116.96568730 .00007138 00000-0 56202-3 0 01711
2 37855 101.7179 133.5482 0251534 139.3189 222.7131 14.79687726026661
RS-39
1 38051U 11062C 12117.45104406 .00013322 00000-0 56401-3 0 2817
2 38051 051.6317 046.2328 0010649 210.4147 259.9414 15.23423882 14081
E-STAR
1 38079U 12006C 12117.29353923 .00074032 00000-0 18088-2 0 1764
2 38079 069.4944 074.0266 0757916 313.1377 040.8636 14.11867668 10253
GOLIAT
1 38085U 12006J 12117.25084711 .00067288 00000-0 16979-2 0 1721
2 38085 069.4928 074.2367 0758917 313.3327 040.6816 14.11009920 10241
